Location: The Rolnick Observatory
(41.1711°N, 73.3275°W)
Time: 21:25:54
(UTC-04:00)

Envisat - Pass Details

Date: 22 February 2019
Orbit: 764 x 766 km, 98.2° (Epoch: 18 March)

Event Time Altitude Azimuth Distance (km) Brightness Sun altitude
Rises 19:15:46 0° 190° (S) 3,218 6.3 -19.5°
Reaches altitude 10° 19:18:16 10° 199° (SSW) 2,297 5.6 -20.0°
Maximum altitude 19:22:49 34° 264° (W) 1,257 4.7 -20.8°
Drops below altitude 10° 19:27:25 10° 328° (NNW) 2,311 6.0 -21.7°
Sets 19:29:57 0° 338° (NNW) 3,241 6.6 -22.2°
